{"data":{"norad_id":67848,"epoch":"2026-09-19T07:33:43.193664Z","epoch_age_seconds":168818,"freshness":"FRESH","line1":"1 67848U 26033AD  26262.31508326  .00014057  00000+0  51939-3 0  9999","line2":"2 67848  43.0014 253.8126 0001882 280.9264  79.1375 15.27577402 34283","mean_motion":15.27577402,"eccentricity":0.0001882,"inclination_deg":43.0014,"raan_deg":253.8126,"arg_perigee_deg":280.9264,"mean_anomaly_deg":79.1375,"bstar":0.00051939,"rev_number":3428,"period_min":94.266909036142,"perigee_km":481.76559870995,"apogee_km":484.34815208465,"semimajor_km":6861.1938753973,"source":"CELESTRAK","updated_at":"2026-09-20T09:00:43.672818Z"}}